You are listening to:
KSWF Tower - Newburgh, New York, United States

KSWF 210345Z 02008KT 10SM SKC M09/M16 A3040

If stream doesn't start automatically press the play button
If stream stops then reload player then press play